Вернуться в каталог

FLOCK 4BE 9

АктивенНаукаSSO
NORAD 60514·PAYLOAD·🇺🇸 United States

Запущен Aug 16, 2024 с Vandenberg Space Force Base

Loading…

Ближайшие Пролёты (ближайшие 24 часа)

TLE

СвежийSource: CelesTrak SupGP

Эпоха: Sep 14, 2026, 06:45 UTC

1 60514C 24149BF  26257.28133102  .00041385  00000+0  92017-3 0  2577
2 60514  97.3748 342.5611 0001924   2.5063 185.2537 15.43662887    12

Отслеживайте FLOCK 4BE 9 в реальном времени с AllMySat

Download on the App Store